Regional Weather Roundup
Issued by NWS

Home | Current Version | Previous Version | Graphics & Text | Print | Product List | Glossary On
Versions: 1 2 3 4 5 6 7 8 9 10 11 12 13 14 15 16 17 18 19 20 21 22 23 24 25 26 27 28 29 30 31 32 33 34 35 36 37 38 39 40 41 42 43 44 45 46 47 48 49 50
369
ASUS43 KMPX 271010
RWRMN
WEATHER ROUNDUP FOR MINNESOTA
NATIONAL WEATHER SERVICE TWIN CITIES/CHANHASSEN MN
500 AM CDT TUE JUN 27 2017


NOTE: "FAIR" INDICATES FEW OR NO CLOUDS BELOW 12,000 FEET WITH NO
SIGNIFICANT WEATHER AND/OR OBSTRUCTIONS TO VISIBILITY. N/A MEANS
CURRENT SKY AND/OR WEATHER CONDITIONS ARE NOT AVAILABLE.

MNZ060>063-068>070-271100-
   Twin Cities Metro

CITY           SKY/WX    TMP DP  RH WIND       PRES   REMARKS
TWIN CITIES    CLEAR     55  45  68 SW3       30.09S
ST PAUL        CLEAR     51  49  92 CALM      30.10S
CRYSTAL        CLEAR     48  44  86 CALM      30.08S
BLAINE         CLEAR     48  48 100 CALM      30.08S
LAKEVILLE      CLEAR     48  45  87 CALM      30.10S
EDEN PRAIRIE   CLEAR     52  46  80 SW5       30.08F
SOUTH ST PAUL  CLEAR     52  46  80 CALM      30.09F
LAKE ELMO      FAIR      46  46 100 CALM      30.10R
$$
MNZ001>005-007-008-013>017-022>024-027-028-271100-
   Northwest Minnesota

CITY           SKY/WX    TMP DP  RH WIND       PRES   REMARKS
BEMIDJI        CLEAR     47  42  81 S6        30.02S
HALLOCK        CLEAR     43  39  87 SE8       29.93F
ROSEAU         MOCLDY    46  41  81 S6        29.95F
WARROAD        MOCLDY    48  45  87 S3        29.96F
THIEF RVR FALL CLEAR     49  40  71 S8        29.99F
CROOKSTON      CLEAR     46  41  81 S6        29.98F
FOSSTON        CLEAR     45  39  81 S8        30.01F
DETROIT LAKES  CLEAR     54  43  66 S6        30.04F
MOORHEAD       CLEAR     50  41  71 S8        30.01F
PARK RAPIDS    CLEAR     49  41  74 CALM      30.04S
MAHNOMEN       FAIR      49  42  76 S9        30.00F
$$
MNZ006-009>011-018-025>026-271100-
   North Central Minnesota

CITY           SKY/WX    TMP DP  RH WIND       PRES   REMARKS
BAUDETTE       CLEAR     47  42  83 CALM      29.97F
FLAG ISLAND    CLEAR     55  48  76 SW7       29.94F
INTL FALLS     CLEAR     41  39  93 CALM      29.99R
WASKISH        CLEAR     45  43  93 CALM      30.00S
BIG FORK       CLEAR     39  39 100 CALM      30.02S
LONGVILLE      CLEAR     41  41 100 CALM      30.04S
GRAND RAPIDS   CLEAR     51  42  71 SW3       30.05S
CRANE LAKE     CLEAR     37  37 100 CALM      30.01S
ORR            CLEAR     46  43  87 CALM      29.99S
COOK           CLEAR     41  41 100 CALM      30.02S
WALKER         FAIR      46  40  80 SW5       30.03S
$$
MNZ012-019>021-037-271100-
   Northeast Minnesota

CITY           SKY/WX    TMP DP  RH WIND       PRES   REMARKS
DULUTH         CLEAR     47  43  86 W3        30.03S
ELY            CLEAR     45  45 100 CALM      30.01S
HIBBING        CLEAR     37  37 100 CALM      30.03R
EVELETH        CLEAR     42  40  90 CALM      30.03S
DULUTH HARBOR  CLEAR     50  46  87 SW8       30.03S
TWO HARBORS    CLEAR     52  46  82 NW6       30.00S
SILVER BAY     CLEAR     41  39  93 CALM      30.00S
GRAND MARAIS     N/A     47  46  97 CALM      29.98S
G MARAIS ARPRT CLEAR     43  39  87 CALM      30.00S
$$
MNZ029>031-032-039>041-046>048-054>057-064-271100-
   West Central Minnesota

CITY           SKY/WX    TMP DP  RH WIND       PRES   REMARKS
FERGUS FALLS   CLEAR     52  43  71 S7        30.02F
WHEATON        CLEAR     54  43  66 S9        30.05F
MORRIS         CLEAR     50  43  76 S6        30.05F
ALEXANDRIA     CLEAR     51  42  71 SW7       30.07F
ELBOW LAKE     FAIR      47  43  87 S6        30.05F
WADENA         CLEAR     45  39  81 CALM      30.05S
GLENWOOD       CLEAR     48  43  81 CALM      30.07F
APPLETON       CLEAR     54  43  66 S5        30.06F
BENSON         CLEAR     48  41  76 SW3       30.08F
ORTONVILLE     CLEAR     52  41  66 S6        30.06S
MADISON        CLEAR     48  43  81 S5        30.07F
WILLMAR        FAIR      48  43  81 CALM      30.10S
$$
MNZ033>034-036-042>043-049>051-058-059-271100-
   Central Minnesota

CITY           SKY/WX    TMP DP  RH WIND       PRES   REMARKS
ST CLOUD       CLEAR     42  42 100 CALM      30.08S
SAUK CENTRE    FAIR      46  41  84 CALM      30.08S
PAYNESVILLE    CLEAR     43  43 100 CALM      30.09S
AITKIN           N/A     39  37  93 CALM      30.04S FOG
PINE RIVER     CLEAR     41  41 100 CALM      30.08S
BRAINERD       CLEAR     43  42  97 CALM      30.06S
STAPLES        CLEAR     45  41  87 CALM      30.05F
LONG PRAIRIE   FAIR      45  43  93 S3        30.07S
LITTLE FALLS   CLEAR     41  37  87 CALM      30.07F
LITCHFIELD     CLEAR     52  46  82 CALM      30.09
BUFFALO        CLEAR     48  45  87 CALM      30.09S
MAPLE LAKE     CLEAR     46  45  97 CALM      30.09F
HUTCHINSON     CLEAR     45  44  95 CALM      30.11S
$$
MNZ037-044-045-052-053-271100-
   East Central Minnesota

CITY           SKY/WX    TMP DP  RH WIND       PRES   REMARKS
PRINCETON      CLEAR     43  41  93 CALM      30.08S
MORA           CLEAR     43  43 100 CALM      30.08S
CAMBRIDGE      CLEAR     46  39  76 CALM      30.06S
RUSH CITY      PTCLDY    46  43  87 CALM      30.07S
MOOSE LAKE     CLEAR     39  37  93 CALM      30.04S
HINCKLEY       FAIR      45  45 100 CALM      30.06S
CLOQUET        CLEAR     48  41  76 W6        30.04S
MCGREGOR       CLEAR     45  43  93 CALM      30.05S
$$
MNZ071>073-080-081-089-090-097-098-271100-
   Southwest Minnesota

CITY           SKY/WX    TMP DP  RH WIND       PRES   REMARKS
MONTEVIDEO     CLEAR     48  41  76 SW5       30.08F
GRANITE FALLS  CLEAR     48  44  84 S8        30.10S
CANBY          CLEAR     56  40  55 SW5       30.08F
MARSHALL       CLEAR     50  42  74 S9        30.09F
REDWOOD FALLS  CLEAR     50  40  68 S5        30.10S
OLIVIA         CLEAR     50  43  76 S3        30.09S
PIPESTONE      CLEAR     52  39  62 S3        30.10S
WINDOM         CLEAR     45  43  93 CALM      30.12S FOG
WORTHINGTON    CLEAR     50  41  71 S8        30.12F
JACKSON        CLEAR     48  43  81 CALM      30.13S
TRACY          CLEAR     55  42  63 S8        30.11S
SLAYTON        CLEAR     49  40  70 S5        30.12S
$$
MNZ065>067-074>077-082>085-091>093-271100-
   South Central Minnesota

CITY           SKY/WX    TMP DP  RH WIND       PRES   REMARKS
MANKATO        CLEAR     50  44  80 S3        30.12S
NEW ULM        CLEAR     48  41  76 CALM      30.11S
ST JAMES       CLEAR     48  43  81 S3        30.12F
FAIRMONT       CLEAR     47  43  86 S3        30.13S
GLENCOE        CLEAR     48  47  95 CALM      30.09S
FARIBAULT      PTCLDY    50  45  81 S3        30.11S
OWATONNA       CLEAR     52  43  71 S3        30.12S
WASECA         CLEAR     46  41  81 CALM      30.13S
ALBERT LEA     CLEAR     48  46  93 CALM      30.13S
$$
MNZ078>079-086>088-094>096-271100-
   Southeast Minnesota

CITY           SKY/WX    TMP DP  RH WIND       PRES   REMARKS
ROCHESTER      CLEAR     47  44  90 SW7       30.12S
RED WING       CLEAR     46  45  93 CALM      30.09S
STANTON        CLEAR     52  45  77 S5        30.09F
DODGE CENTER   CLEAR     48  43  81 SW6       30.12S
WINONA         CLEAR     48  46  93 CALM      30.12R
AUSTIN         CLEAR     46  45  93 CALM      30.12S
PRESTON        CLEAR     50  43  77 SW7       30.13S
$$
ABBREVIATIONS USED IN REMARKS
   TC - TEMPERATURES IN CELSIUS
  WCI - WIND CHILL INDEX
   HX - HEAT INDEX
  VSB - VISIBILITY
$$




USA.gov is the U.S. government's official web portal to all federal, state and local government web resources and services.